{"data":{"norad_id":61889,"intl_designator":"2024-204R","name":"STARLINK-32292","alt_names":[],"object_type":"PAYLOAD","status":"ACTIVE","operator":null,"country":"US","launch_date":"2024-11-09","launch_site_code":"AFWTR","launch_vehicle":null,"mission":null,"orbit_class":"UNKNOWN","rcs_meters":null,"size_class":null,"mass_kg":null,"dimensions":null,"purposes":["comms"],"wikipedia_slug":null,"has_3d_model":false,"image_url":null,"decayed_at":null,"tle_current":{"epoch":"2026-05-25T03:16:53.950656Z","epoch_age_seconds":59667,"freshness":"FRESH","line1":"1 61889U 24204R   26145.13673554  .00000868  00000+0  36842-4 0  9994","line2":"2 61889  53.1602 131.1625 0001159  87.5306 272.5829 15.34387446 86818","mean_motion":15.34387446,"eccentricity":0.0001159,"inclination_deg":53.1602,"raan_deg":131.1625,"arg_perigee_deg":87.5306,"mean_anomaly_deg":272.5829,"bstar":3.6842e-5,"rev_number":8681,"period_min":93.84852592179,"perigee_km":461.94769588669,"apogee_km":463.53341130361,"semimajor_km":6840.8775535951,"source":"CELESTRAK","updated_at":"2026-05-25T13:38:19.478402Z"}}}